BCS16T EVRA-EHAM

Flight info

Callsign BCS16T
Flight time 1h 56m
Altitude 34000
Route VALED DCT LASMA M864 ADAXA DCT NINTA DCT GIMRU DCT BLUFA
Aircraft B738/M-SDE2E3FGHIRWXY/LB1

Departure

Time 2026-05-07 18:02
Airport Riga International Airport (EVRA)

Arrival

Time 2026-05-07 19:58
Airport Amsterdam Airport Schiphol (EHAM)
Time Latitude Longitude Altitude Speed Heading
2026-05-07 17:49 56.92725 23.97770 40 ft 0 kts 185°
2026-05-07 17:56 56.92724 23.97770 43 ft 1 kts 185°
2026-05-07 17:56 56.92676 23.97762 43 ft 10 kts 185°
2026-05-07 17:56 56.92614 23.97722 42 ft 10 kts 236°
2026-05-07 17:56 56.92607 23.97601 43 ft 10 kts 260°
2026-05-07 17:57 56.92555 23.97541 43 ft 9 kts 186°
2026-05-07 17:57 56.92512 23.97533 43 ft 9 kts 185°
2026-05-07 17:57 56.92428 23.97518 43 ft 10 kts 187°
2026-05-07 17:57 56.92353 23.97500 43 ft 12 kts 187°
2026-05-07 17:58 56.92269 23.97484 42 ft 12 kts 184°
2026-05-07 17:58 56.92185 23.97473 43 ft 12 kts 184°
2026-05-07 17:58 56.92104 23.97459 43 ft 12 kts 186°
2026-05-07 17:58 56.92026 23.97445 43 ft 11 kts 186°
2026-05-07 17:59 56.91933 23.97436 43 ft 15 kts 180°
2026-05-07 17:59 56.91826 23.97421 43 ft 15 kts 184°
2026-05-07 17:59 56.91724 23.97406 43 ft 15 kts 186°
2026-05-07 17:59 56.91625 23.97387 43 ft 14 kts 185°
2026-05-07 18:00 56.91530 23.97371 43 ft 13 kts 185°
2026-05-07 18:00 56.91439 23.97356 43 ft 13 kts 185°
2026-05-07 18:00 56.91354 23.97322 43 ft 13 kts 213°
2026-05-07 18:00 56.91293 23.97203 43 ft 13 kts 230°
2026-05-07 18:01 56.91250 23.97072 43 ft 11 kts 262°
2026-05-07 18:01 56.91243 23.96960 44 ft 5 kts 283°
2026-05-07 18:01 56.91271 23.96934 45 ft 5 kts 359°
2026-05-07 18:01 56.91281 23.96936 45 ft 0 kts
2026-05-07 18:02 56.91614 23.96988 44 ft 86 kts
2026-05-07 18:02 56.92432 23.97123 55 ft 150 kts
2026-05-07 18:02 56.93473 23.97293 803 ft 149 kts
2026-05-07 18:03 56.94523 23.97448 1671 ft 153 kts
2026-05-07 18:03 56.95590 23.97597 2503 ft 154 kts
2026-05-07 18:03 56.96657 23.97755 3356 ft 154 kts
2026-05-07 18:03 56.97814 23.97940 3805 ft 183 kts
2026-05-07 18:04 56.99169 23.98165 4035 ft 208 kts
2026-05-07 18:04 57.00677 23.98421 4475 ft 223 kts
2026-05-07 18:04 57.02302 23.98702 4835 ft 244 kts
2026-05-07 18:04 57.04004 23.98999 5504 ft 253 kts
2026-05-07 18:05 57.05764 23.98657 5977 ft 260 kts 340°
2026-05-07 18:05 57.07267 23.96755 6708 ft 269 kts 314°
2026-05-07 18:05 57.08289 23.93871 7618 ft 272 kts 297°
2026-05-07 18:05 57.09090 23.90720 8536 ft 273 kts 296°
2026-05-07 18:06 57.09889 23.87533 9411 ft 276 kts 296°
2026-05-07 18:06 57.10701 23.84315 10274 ft 278 kts 294°
2026-05-07 18:06 57.11109 23.80741 10640 ft 301 kts 269°
2026-05-07 18:06 57.10698 23.76797 10857 ft 327 kts 255°
2026-05-07 18:07 57.10035 23.72649 11159 ft 346 kts 255°
2026-05-07 18:07 57.09334 23.68444 11847 ft 351 kts 250°
2026-05-07 18:07 57.08118 23.64562 12728 ft 353 kts 231°
2026-05-07 18:07 57.06300 23.61509 13641 ft 355 kts 220°
2026-05-07 18:08 57.04341 23.58715 14387 ft 358 kts 220°
2026-05-07 18:08 57.02332 23.55850 15091 ft 360 kts 220°
2026-05-07 18:08 57.00371 23.53010 15808 ft 362 kts 221°
2026-05-07 18:08 56.98394 23.50130 16533 ft 364 kts 220°
2026-05-07 18:09 56.96389 23.47286 17245 ft 366 kts 220°
2026-05-07 18:09 56.94359 23.44449 17933 ft 368 kts 220°
2026-05-07 18:09 56.92309 23.41594 18588 ft 371 kts 220°
2026-05-07 18:09 56.90251 23.38726 19166 ft 373 kts 220°
2026-05-07 18:10 56.88207 23.35875 19732 ft 376 kts 220°
2026-05-07 18:10 56.86125 23.32969 20304 ft 378 kts 220°
2026-05-07 18:10 56.84046 23.30071 20862 ft 380 kts 219°
2026-05-07 18:10 56.81830 23.26987 21433 ft 383 kts 219°
2026-05-07 18:11 56.79771 23.23671 21945 ft 384 kts 232°
2026-05-07 18:11 56.78792 23.21096 22291 ft 384 kts 241°
2026-05-07 18:11 56.77591 23.15040 22991 ft 388 kts 258°
2026-05-07 18:11 56.77157 23.10179 23500 ft 390 kts 260°
2026-05-07 18:12 56.76769 23.05249 23916 ft 394 kts 260°
2026-05-07 18:12 56.76377 23.00311 24376 ft 394 kts 260°
2026-05-07 18:12 56.75964 22.95360 24846 ft 395 kts 259°
2026-05-07 18:12 56.75533 22.90417 25315 ft 395 kts 259°
2026-05-07 18:13 56.75091 22.85465 25734 ft 397 kts 259°
2026-05-07 18:13 56.74658 22.80498 26135 ft 398 kts 259°
2026-05-07 18:13 56.74261 22.75493 26540 ft 400 kts 260°
2026-05-07 18:13 56.73878 22.70474 26937 ft 401 kts 260°
2026-05-07 18:14 56.73491 22.65426 27328 ft 402 kts 259°
2026-05-07 18:14 56.73105 22.60445 27705 ft 403 kts 259°
2026-05-07 18:14 56.72707 22.55381 28075 ft 405 kts 259°
2026-05-07 18:14 56.72303 22.50309 28430 ft 406 kts 259°
2026-05-07 18:15 56.71884 22.45210 28769 ft 407 kts 258°
2026-05-07 18:15 56.71359 22.40136 29101 ft 408 kts 256°
2026-05-07 18:15 56.70764 22.35098 29548 ft 406 kts 255°
2026-05-07 18:15 56.70148 22.30094 30171 ft 402 kts 255°
2026-05-07 18:16 56.69538 22.25165 30607 ft 399 kts 255°
2026-05-07 18:16 56.68939 22.20297 30856 ft 401 kts 255°
2026-05-07 18:16 56.68332 22.15329 31075 ft 403 kts 255°
2026-05-07 18:16 56.67728 22.10349 31420 ft 403 kts 255°
2026-05-07 18:17 56.67129 22.05396 31788 ft 401 kts 255°
2026-05-07 18:17 56.66530 22.00434 32108 ft 401 kts 255°
2026-05-07 18:17 56.65930 21.95480 32381 ft 402 kts 255°
2026-05-07 18:17 56.65327 21.90520 32692 ft 402 kts 255°
2026-05-07 18:18 56.64723 21.85559 33018 ft 402 kts 255°
2026-05-07 18:18 56.64117 21.80609 33275 ft 402 kts 255°
2026-05-07 18:18 56.63515 21.75706 33497 ft 404 kts 255°
2026-05-07 18:18 56.62900 21.70712 33737 ft 405 kts 255°
2026-05-07 18:19 56.62283 21.65720 34041 ft 404 kts 255°
2026-05-07 18:19 56.61035 21.55681 34082 ft 410 kts 255°
2026-05-07 18:20 56.59776 21.45624 34079 ft 406 kts 255°
2026-05-07 18:20 56.58534 21.35763 34084 ft 403 kts 255°
2026-05-07 18:21 56.57276 21.25855 34077 ft 403 kts 255°
2026-05-07 18:21 56.56009 21.15945 34076 ft 403 kts 255°
2026-05-07 18:22 56.54733 21.06034 34076 ft 404 kts 255°
2026-05-07 18:22 56.53445 20.96097 34081 ft 405 kts 255°
2026-05-07 18:23 56.52155 20.86213 34080 ft 407 kts 255°
2026-05-07 18:23 56.50845 20.76237 34083 ft 408 kts 255°
2026-05-07 18:24 56.49524 20.66243 34091 ft 409 kts 254°
2026-05-07 18:24 56.48190 20.56227 34097 ft 410 kts 254°
2026-05-07 18:25 56.46855 20.46261 34102 ft 411 kts 254°
2026-05-07 18:25 56.45499 20.36208 34107 ft 412 kts 254°
2026-05-07 18:26 56.44134 20.26145 34111 ft 412 kts 254°
2026-05-07 18:26 56.42895 20.16031 34107 ft 413 kts 257°
2026-05-07 18:27 56.41899 20.05865 34113 ft 414 kts 258°
2026-05-07 18:27 56.40907 19.95628 34111 ft 414 kts 258°
2026-05-07 18:28 56.39888 19.85406 34110 ft 414 kts 257°
2026-05-07 18:28 56.38847 19.75164 34113 ft 415 kts 257°
2026-05-07 18:29 56.37802 19.65001 34115 ft 415 kts 257°
2026-05-07 18:29 56.36741 19.54769 34113 ft 415 kts 257°
2026-05-07 18:30 56.35669 19.44516 34118 ft 416 kts 257°
2026-05-07 18:30 56.34589 19.34265 34122 ft 417 kts 257°
2026-05-07 18:31 56.33505 19.24068 34123 ft 417 kts 257°
2026-05-07 18:31 56.32404 19.13795 34123 ft 418 kts 257°
2026-05-07 18:32 56.31293 19.03504 34124 ft 419 kts 257°
2026-05-07 18:32 56.30171 18.93188 34129 ft 420 kts 257°
2026-05-07 18:33 56.29033 18.82851 34130 ft 421 kts 257°
2026-05-07 18:33 56.27887 18.72568 34130 ft 422 kts 257°
2026-05-07 18:34 56.26725 18.62200 34128 ft 423 kts 257°
2026-05-07 18:34 56.25552 18.51807 34130 ft 425 kts 257°
2026-05-07 18:35 56.24367 18.41384 34135 ft 426 kts 257°
2026-05-07 18:35 56.23178 18.31017 34132 ft 427 kts 257°
2026-05-07 18:36 56.21415 18.20845 34139 ft 427 kts 249°
2026-05-07 18:36 56.19339 18.10836 34136 ft 428 kts 249°
2026-05-07 18:37 56.17256 18.00810 34132 ft 430 kts 249°
2026-05-07 18:37 56.15189 17.90802 34134 ft 431 kts 249°
2026-05-07 18:38 56.13106 17.80716 34138 ft 432 kts 249°
2026-05-07 18:38 56.11013 17.70615 34135 ft 433 kts 249°
2026-05-07 18:39 56.08906 17.60500 34137 ft 434 kts 249°
2026-05-07 18:39 56.06800 17.50439 34137 ft 434 kts 249°
2026-05-07 18:40 56.04669 17.40314 34140 ft 435 kts 249°
2026-05-07 18:40 56.02530 17.30199 34144 ft 436 kts 249°
2026-05-07 18:41 56.00378 17.20076 34142 ft 436 kts 249°
2026-05-07 18:41 55.98228 17.10012 34145 ft 436 kts 249°
2026-05-07 18:42 55.96056 16.99892 34145 ft 437 kts 249°
2026-05-07 18:42 55.93871 16.89760 34142 ft 438 kts 249°
2026-05-07 18:43 55.91673 16.79624 34149 ft 439 kts 249°
2026-05-07 18:43 55.89476 16.69538 34148 ft 440 kts 249°
2026-05-07 18:44 55.87252 16.59376 34146 ft 441 kts 249°
2026-05-07 18:44 55.85015 16.49210 34148 ft 442 kts 249°
2026-05-07 18:45 55.82764 16.39028 34150 ft 443 kts 249°
2026-05-07 18:45 55.80883 16.30556 34150 ft 444 kts 249°
2026-05-07 18:46 55.78236 16.18695 34152 ft 445 kts 248°
2026-05-07 18:46 55.75947 16.08487 34149 ft 445 kts 248°
2026-05-07 18:47 55.73640 15.98256 34150 ft 446 kts 248°
2026-05-07 18:47 55.71717 15.89761 34151 ft 447 kts 248°
2026-05-07 18:48 55.69010 15.77862 34150 ft 448 kts 248°
2026-05-07 18:48 55.66668 15.67624 34150 ft 449 kts 248°
2026-05-07 18:49 55.64715 15.59121 34152 ft 449 kts 248°
2026-05-07 18:49 55.62351 15.48876 34152 ft 449 kts 248°
2026-05-07 18:50 55.59979 15.38645 34150 ft 450 kts 248°
2026-05-07 18:50 55.57594 15.28409 34155 ft 450 kts 248°
2026-05-07 18:51 55.55198 15.18174 34151 ft 451 kts 248°
2026-05-07 18:51 55.52809 15.08015 34148 ft 452 kts 248°
2026-05-07 18:52 55.50390 14.97782 34152 ft 452 kts 248°
2026-05-07 18:52 55.47961 14.87549 34156 ft 453 kts 248°
2026-05-07 18:53 55.45521 14.77322 34147 ft 453 kts 248°
2026-05-07 18:53 55.43068 14.67091 34150 ft 453 kts 248°
2026-05-07 18:54 55.40621 14.56930 34152 ft 454 kts 248°
2026-05-07 18:54 55.38149 14.46712 34149 ft 454 kts 248°
2026-05-07 18:55 55.35665 14.36495 34152 ft 455 kts 248°
2026-05-07 18:55 55.33172 14.26289 34149 ft 455 kts 248°
2026-05-07 18:56 55.30682 14.16139 34151 ft 456 kts 247°
2026-05-07 18:56 55.28167 14.05938 34151 ft 456 kts 247°
2026-05-07 18:57 55.25637 13.95722 34146 ft 456 kts 247°
2026-05-07 18:57 55.23101 13.85529 34148 ft 457 kts 247°
2026-05-07 18:58 55.20550 13.75324 34148 ft 457 kts 247°
2026-05-07 18:58 55.17988 13.65122 34150 ft 458 kts 247°
2026-05-07 18:59 55.15433 13.54997 34148 ft 458 kts 247°
2026-05-07 18:59 55.12850 13.44806 34150 ft 459 kts 246°
2026-05-07 19:00 55.10255 13.34613 34145 ft 459 kts 246°
2026-05-07 19:00 55.07653 13.24438 34146 ft 459 kts 246°
2026-05-07 19:01 55.05056 13.14329 34145 ft 460 kts 246°
2026-05-07 19:01 55.02431 13.04161 34146 ft 460 kts 246°
2026-05-07 19:02 54.99796 12.93999 34150 ft 460 kts 246°
2026-05-07 19:02 54.97151 12.83842 34152 ft 461 kts 246°
2026-05-07 19:03 54.94494 12.73686 34150 ft 461 kts 246°
2026-05-07 19:03 54.91828 12.63542 34148 ft 461 kts 246°
2026-05-07 19:04 54.89169 12.53467 34144 ft 462 kts 246°
2026-05-07 19:04 54.86481 12.43331 34149 ft 462 kts 246°
2026-05-07 19:05 54.83784 12.33207 34152 ft 462 kts 246°
2026-05-07 19:05 54.81079 12.23095 34146 ft 463 kts 246°
2026-05-07 19:06 54.78321 12.12833 34151 ft 463 kts 245°
2026-05-07 19:06 54.74225 11.97675 34147 ft 464 kts 245°
2026-05-07 19:07 54.71483 11.87581 34151 ft 464 kts 245°
2026-05-07 19:07 54.68729 11.77492 34146 ft 464 kts 245°
2026-05-07 19:08 54.66241 11.68412 34147 ft 463 kts 245°
2026-05-07 19:08 54.63147 11.57172 34149 ft 463 kts 245°
2026-05-07 19:09 54.60376 11.47147 34143 ft 463 kts 245°
2026-05-07 19:09 54.57592 11.37116 34151 ft 463 kts 245°
2026-05-07 19:10 54.54786 11.27212 34141 ft 463 kts 243°
2026-05-07 19:10 54.51729 11.17453 34145 ft 463 kts 241°
2026-05-07 19:11 54.48618 11.07767 34149 ft 463 kts 241°
2026-05-07 19:11 54.45519 10.98062 34147 ft 463 kts 241°
2026-05-07 19:12 54.42435 10.88357 34146 ft 463 kts 241°
2026-05-07 19:12 54.39331 10.78600 34141 ft 463 kts 241°
2026-05-07 19:13 54.36258 10.68981 34149 ft 463 kts 241°
2026-05-07 19:13 54.33140 10.59263 34148 ft 462 kts 241°
2026-05-07 19:14 54.30053 10.49680 34146 ft 463 kts 241°
2026-05-07 19:14 54.26938 10.40050 34151 ft 462 kts 241°
2026-05-07 19:15 54.23818 10.30443 34152 ft 462 kts 240°
2026-05-07 19:15 54.20691 10.20851 34150 ft 462 kts 240°
2026-05-07 19:16 54.17556 10.11272 34153 ft 462 kts 240°
2026-05-07 19:16 54.14369 10.01575 34145 ft 462 kts 240°
2026-05-07 19:17 54.11263 9.92159 34138 ft 462 kts 240°
2026-05-07 19:17 54.08063 9.82498 34126 ft 462 kts 240°
2026-05-07 19:18 54.04914 9.73026 34126 ft 461 kts 240°
2026-05-07 19:18 54.01743 9.63527 34123 ft 461 kts 240°
2026-05-07 19:19 53.98574 9.54069 34124 ft 461 kts 240°
2026-05-07 19:19 53.95397 9.44626 34122 ft 460 kts 240°
2026-05-07 19:20 53.92216 9.35206 34118 ft 459 kts 239°
2026-05-07 19:20 53.89035 9.25821 34121 ft 459 kts 239°
2026-05-07 19:21 53.85851 9.16464 34115 ft 458 kts 239°
2026-05-07 19:21 53.82852 9.07684 34111 ft 458 kts 239°
2026-05-07 19:22 53.79668 8.98394 34111 ft 457 kts 239°
2026-05-07 19:22 53.76472 8.89107 34104 ft 456 kts 239°
2026-05-07 19:23 53.73276 8.79852 34104 ft 455 kts 239°
2026-05-07 19:23 53.70100 8.70691 34105 ft 455 kts 239°
2026-05-07 19:24 53.66897 8.61488 34103 ft 454 kts 239°
2026-05-07 19:24 53.63695 8.52318 34106 ft 454 kts 239°
2026-05-07 19:25 53.60464 8.43103 34104 ft 453 kts 239°
2026-05-07 19:25 53.57231 8.33915 34107 ft 453 kts 238°
2026-05-07 19:26 53.54014 8.24805 34108 ft 453 kts 238°
2026-05-07 19:26 53.50798 8.15733 34106 ft 452 kts 238°
2026-05-07 19:27 53.47520 8.06517 34106 ft 452 kts 238°
2026-05-07 19:27 53.44290 7.97472 34104 ft 452 kts 238°
2026-05-07 19:28 53.40993 7.88274 34109 ft 451 kts 238°
2026-05-07 19:28 53.37756 7.79273 34104 ft 450 kts 238°
2026-05-07 19:29 53.34515 7.70296 34105 ft 450 kts 238°
2026-05-07 19:29 53.31302 7.61424 34107 ft 449 kts 238°
2026-05-07 19:30 53.28067 7.52528 34111 ft 447 kts 238°
2026-05-07 19:30 53.24835 7.43671 34126 ft 446 kts 238°
2026-05-07 19:31 53.21630 7.34917 33647 ft 436 kts 238°
2026-05-07 19:31 53.20048 7.30607 32916 ft 436 kts 238°
2026-05-07 19:31 53.18456 7.26278 32065 ft 440 kts 238°
2026-05-07 19:32 53.16850 7.21920 31246 ft 443 kts 238°
2026-05-07 19:32 53.15236 7.17547 30461 ft 444 kts 238°
2026-05-07 19:32 53.13632 7.13208 29585 ft 446 kts 238°
2026-05-07 19:32 53.12005 7.08813 28615 ft 447 kts 238°
2026-05-07 19:33 53.10378 7.04427 27991 ft 442 kts 238°
2026-05-07 19:33 53.08773 7.00108 27409 ft 436 kts 238°
2026-05-07 19:33 53.07191 6.95857 26899 ft 429 kts 238°
2026-05-07 19:33 53.05630 6.91669 26381 ft 423 kts 238°
2026-05-07 19:34 53.04098 6.87568 26155 ft 411 kts 238°
2026-05-07 19:34 53.02600 6.83564 26111 ft 406 kts 238°
2026-05-07 19:34 53.01110 6.79587 26111 ft 405 kts 238°
2026-05-07 19:34 52.99620 6.75617 26112 ft 406 kts 238°
2026-05-07 19:35 52.98589 6.72872 26105 ft 406 kts 238°
2026-05-07 19:35 52.97092 6.68894 26103 ft 407 kts 238°
2026-05-07 19:35 52.95593 6.64916 26105 ft 407 kts 238°
2026-05-07 19:35 52.93604 6.59646 26106 ft 407 kts 238°
2026-05-07 19:36 52.92586 6.56952 26103 ft 407 kts 238°
2026-05-07 19:36 52.91086 6.52991 26105 ft 407 kts 238°
2026-05-07 19:36 52.89585 6.49032 26106 ft 406 kts 238°
2026-05-07 19:36 52.88101 6.45122 26103 ft 406 kts 238°
2026-05-07 19:37 52.86578 6.41116 26099 ft 406 kts 238°
2026-05-07 19:37 52.85095 6.37222 26101 ft 405 kts 237°
2026-05-07 19:37 52.83592 6.33284 26100 ft 405 kts 237°
2026-05-07 19:37 52.82046 6.29401 26099 ft 404 kts 236°
2026-05-07 19:38 52.80447 6.25589 26096 ft 403 kts 234°
2026-05-07 19:38 52.78828 6.21798 26097 ft 403 kts 234°
2026-05-07 19:38 52.77211 6.18021 26097 ft 403 kts 234°
2026-05-07 19:38 52.75600 6.14245 26095 ft 402 kts 235°
2026-05-07 19:39 52.73994 6.10469 26093 ft 402 kts 235°
2026-05-07 19:39 52.72410 6.06736 26083 ft 401 kts 235°
2026-05-07 19:39 52.70829 6.03009 25784 ft 394 kts 235°
2026-05-07 19:39 52.69282 5.99361 25292 ft 392 kts 235°
2026-05-07 19:40 52.67723 5.95689 24721 ft 391 kts 235°
2026-05-07 19:40 52.66160 5.92013 24120 ft 392 kts 235°
2026-05-07 19:40 52.64597 5.88342 23538 ft 391 kts 235°
2026-05-07 19:40 52.63044 5.84701 23048 ft 386 kts 235°
2026-05-07 19:41 52.61507 5.81102 22539 ft 382 kts 235°
2026-05-07 19:41 52.59982 5.77537 21991 ft 380 kts 235°
2026-05-07 19:41 52.58485 5.74041 21300 ft 370 kts 234°
2026-05-07 19:41 52.57011 5.70602 20410 ft 366 kts 234°
2026-05-07 19:42 52.55550 5.67198 19591 ft 362 kts 234°
2026-05-07 19:42 52.54125 5.63881 18780 ft 358 kts 234°
2026-05-07 19:42 52.52740 5.60666 17842 ft 358 kts 234°
2026-05-07 19:42 52.51322 5.57331 16950 ft 354 kts 238°
2026-05-07 19:43 52.50315 5.53696 16146 ft 348 kts 250°
2026-05-07 19:43 52.49516 5.49926 15287 ft 344 kts 251°
2026-05-07 19:43 52.48748 5.46221 14487 ft 341 kts 251°
2026-05-07 19:43 52.47987 5.42567 13710 ft 336 kts 251°
2026-05-07 19:44 52.47239 5.39016 12897 ft 332 kts 251°
2026-05-07 19:44 52.46481 5.35458 12064 ft 329 kts 251°
2026-05-07 19:44 52.45684 5.31750 11226 ft 325 kts 250°
2026-05-07 19:44 52.44932 5.28268 10448 ft 322 kts 250°
2026-05-07 19:45 52.44186 5.24828 9678 ft 319 kts 250°
2026-05-07 19:45 52.43447 5.21428 9014 ft 311 kts 250°
2026-05-07 19:45 52.42745 5.18208 8872 ft 289 kts 250°
2026-05-07 19:45 52.42098 5.15244 8617 ft 275 kts 250°
2026-05-07 19:46 52.41457 5.12315 8046 ft 273 kts 250°
2026-05-07 19:46 52.40817 5.09392 7478 ft 271 kts 249°
2026-05-07 19:46 52.40182 5.06499 6947 ft 269 kts 249°
2026-05-07 19:46 52.39547 5.03607 6565 ft 270 kts 249°
2026-05-07 19:47 52.38922 5.00767 6545 ft 260 kts 249°
2026-05-07 19:47 52.38309 4.97981 6567 ft 258 kts 249°
2026-05-07 19:47 52.37693 4.95192 6566 ft 257 kts 249°
2026-05-07 19:47 52.37080 4.92417 6572 ft 258 kts 249°
2026-05-07 19:48 52.36468 4.89650 6580 ft 259 kts 249°
2026-05-07 19:48 52.35855 4.86875 6578 ft 259 kts 249°
2026-05-07 19:48 52.35239 4.84099 6576 ft 260 kts 249°
2026-05-07 19:48 52.34623 4.81325 6574 ft 260 kts 249°
2026-05-07 19:49 52.34005 4.78550 6577 ft 259 kts 249°
2026-05-07 19:49 52.33431 4.75759 6567 ft 260 kts 258°
2026-05-07 19:49 52.33481 4.72608 6584 ft 260 kts 279°
2026-05-07 19:49 52.33840 4.69925 6577 ft 261 kts 282°
2026-05-07 19:50 52.34274 4.67014 6574 ft 260 kts 282°
2026-05-07 19:50 52.34522 4.64106 6556 ft 258 kts 261°
2026-05-07 19:50 52.33917 4.61358 6589 ft 254 kts 239°
2026-05-07 19:50 52.32990 4.58897 6576 ft 255 kts 236°
2026-05-07 19:51 52.32031 4.56509 6569 ft 255 kts 236°
2026-05-07 19:51 52.31051 4.54044 6573 ft 255 kts 236°
2026-05-07 19:51 52.30094 4.51603 6570 ft 255 kts 237°
2026-05-07 19:51 52.29209 4.49330 6463 ft 247 kts 236°
2026-05-07 19:52 52.28376 4.47184 6327 ft 233 kts 236°
2026-05-07 19:52 52.27476 4.45040 5829 ft 227 kts 224°
2026-05-07 19:52 52.26127 4.43755 5155 ft 229 kts 192°
2026-05-07 19:52 52.24539 4.43827 4580 ft 226 kts 163°
2026-05-07 19:53 52.23144 4.44899 4028 ft 225 kts 149°
2026-05-07 19:53 52.21934 4.46474 3420 ft 225 kts 126°
2026-05-07 19:53 52.21245 4.48693 2919 ft 220 kts 110°
2026-05-07 19:53 52.20955 4.51079 2537 ft 213 kts 82°
2026-05-07 19:54 52.21402 4.53264 2472 ft 197 kts 68°
2026-05-07 19:54 52.21953 4.55237 2323 ft 186 kts 65°
2026-05-07 19:54 52.22556 4.57048 2168 ft 177 kts 60°
2026-05-07 19:54 52.23185 4.58729 2023 ft 169 kts 59°
2026-05-07 19:55 52.23791 4.60321 1922 ft 166 kts 59°
2026-05-07 19:55 52.24401 4.61920 1710 ft 163 kts 59°
2026-05-07 19:55 52.24978 4.63430 1479 ft 152 kts 59°
2026-05-07 19:55 52.25527 4.64868 1282 ft 147 kts 59°
2026-05-07 19:56 52.26042 4.66216 1110 ft 138 kts 58°
2026-05-07 19:56 52.26543 4.67527 898 ft 132 kts 58°
2026-05-07 19:56 52.27024 4.68787 730 ft 131 kts 58°
2026-05-07 19:56 52.27514 4.70071 565 ft 134 kts 58°
2026-05-07 19:57 52.28007 4.71359 367 ft 133 kts 59°
2026-05-07 19:57 52.28491 4.72625 194 ft 133 kts 59°
2026-05-07 19:57 52.29011 4.73968 28 ft 134 kts 58°
2026-05-07 19:57 52.29447 4.75113 -4 ft 110 kts 58°
2026-05-07 19:58 52.29787 4.76006 -5 ft 77 kts 58°
2026-05-07 19:58 52.30044 4.76678 -3 ft 61 kts 58°
2026-05-07 19:58 52.30255 4.77226 -5 ft 50 kts 58°
2026-05-07 19:58 52.30306 4.77492 -3 ft 22 kts 124°
2026-05-07 19:59 52.30199 4.77521 -2 ft 16 kts 207°
2026-05-07 19:59 52.30120 4.77404 -2 ft 15 kts 234°
2026-05-07 19:59 52.30066 4.77264 -2 ft 14 kts 238°
2026-05-07 19:59 52.30013 4.77128 -2 ft 14 kts 238°
2026-05-07 20:00 52.29964 4.76998 -2 ft 13 kts 238°
2026-05-07 20:00 52.29912 4.76879 -2 ft 13 kts 223°
2026-05-07 20:00 52.29849 4.76784 -2 ft 12 kts 235°
2026-05-07 20:00 52.29813 4.76711 -2 ft 4 kts 204°
2026-05-07 20:01 52.29802 4.76717 -2 ft 2 kts 147°
2026-05-07 20:01 52.29760 4.76764 -2 ft 7 kts 147°
2026-05-07 20:01 52.29741 4.76784 -2 ft 0 kts 148°